Regional Weather Roundup
Issued by NWS Goodland, KS

Home | Current Version | Previous Version | Text Only | Print | Product List | Glossary On
Versions: 1 2 3 4 5 6 7 8 9 10 11 12 13 14 15 16 17 18 19 20 21 22 23 24 25 26 27 28 29 30 31 32 33 34 35 36 37 38 39 40 41 42 43 44 45 46 47 48 49 50
000
ASUS43 KGLD 022359
RWRGLD

GOODLAND FORECAST AREA HOURLY WEATHER ROUNDUP
NATIONAL WEATHER SERVICE GOODLAND KS
600 PM MDT TUE SEP 02 2014

...OFFICIAL OBSERVATIONS...

CITY           SKY/WX    TMP DP  RH WIND       PRES   REMARKS
GOODLAND KS    SUNNY     83  57  41 S13G25    29.95F
HILL CITY KS   SUNNY     83  66  56 S9        29.91F
IMPERIAL NEB   SUNNY     84  54  35 S17       29.90F
MCCOOK NEB     LGT RAIN  84  58  40 S15       29.90F
AKRON CO       SUNNY     83  45  26 S13G24    29.95F
BURLINGTON CO  SUNNY     82  49  31 S21G28    29.96F
LIMON CO       SUNNY     80  45  28 SE14      30.02F
$$

...UNOFFICIAL OBSERVATIONS...

CITY           SKY/WX    TMP DP  RH WIND       PRES   REMARKS
COLBY KS       SUNNY     82  66  57 S15       29.95S
NORTON KS      SUNNY     81  57  44 SE14G21   29.91F
SHARON SPRINGS   N/A     83  61  46 SE12        N/A
WAKEENEY KS      N/A     83  61  47 MISG        N/A
KIT CARSON CO    N/A     84  53  34 N12G23      N/A
YUMA CO          N/A     83  52  34 S10         N/A
$$


USA.gov is the U.S. government's official web portal to all federal, state and local government web resources and services.